Weather History for Estherville, IA

Change the Weather History Date:

Friday, November 30, 2012

  Actual Average Record
Temperature  
Mean Temperature 33 °F 25 °F  
Max Temperature 43 °F 34 °F 58 °F (1962)
Min Temperature 22 °F 16 °F -8 °F (1964)
Degree Days  
Heating Degree Days 32 40  
Month to date heating degree days 827 970  
Since 1 July heating degree days 1606 1719  
Cooling Degree Days 0 0  
Month to date cooling degree days 0 0  
Year to date cooling degree days 886 593  
Moisture  
Dew Point 27 °F    
Average Humidity 83    
Maximum Humidity 100    
Minimum Humidity 65    
Precipitation  
Precipitation 0.00 in 0.05 in 0.13 in (1975)
Month to date precipitation 0.75 1.67  
Sea Level Pressure  
Sea Level Pressure 30.08 in    
Wind  
Wind Speed 9 mph (ENE)    
Max Wind Speed 16 mph    
Max Gust Speed 21 mph    
Visibility 4 miles    
Events      
T = Trace of Precipitation, MM = Missing Value Source: NWS Daily Summary

Daily Weather History Graph

Daily Weather History Graph

Search for Another Location

Airport:

Trip Planner

Search our weather history database for the weather conditions in past years. The results will help you decide how hot, cold, wet, or windy it might be!

Date:

Astronomy

Nov. 30, 2012 Rise Set
Actual Time 7:31 AM CST 4:44 PM CST
Civil Twilight 6:59 AM CST 5:16 PM CST
Nautical Twilight 6:23 AM CST 5:51 PM CST
Astronomical Twilight 5:49 AM CST 6:26 PM CST
Moon 6:40 PM CST (11/30) 9:03 AM CST (11/30)
Length of Visible Light 10h 17m
Length of Day
9h 13m
Waning Gibbous, 96% of the Moon is Illuminated
Nov 30
Waning Gibbous
Dec 6
Last Quarter
Dec 13
New
Dec 19
First Quarter
Dec 28
Full

Hourly Weather History & Observations

Time (CST) Temp. Windchill Dew Point Humidity Pressure Visibility Wind Dir Wind Speed Gust Speed Precip Events Conditions
12:52 AM 28.0 °F 20.8 °F 24.1 °F 85% 30.00 in 7.0 mi NE 6.9 mph - N/A   Clear
1:52 AM 27.0 °F 18.0 °F 23.0 °F 85% 30.01 in 6.0 mi NNE 9.2 mph - N/A   Clear
2:52 AM 26.1 °F 18.4 °F 23.0 °F 88% 30.03 in 6.0 mi NNE 6.9 mph - N/A   Clear
3:52 AM 26.1 °F 18.4 °F 23.0 °F 88% 30.04 in 6.0 mi North 6.9 mph - N/A   Clear
4:52 AM 25.0 °F 17.1 °F 21.9 °F 88% 30.07 in 6.0 mi North 6.9 mph - N/A   Clear
5:52 AM 24.1 °F 15.2 °F 21.0 °F 88% 30.07 in 5.0 mi NNE 8.1 mph - N/A   Clear
6:52 AM 23.0 °F 12.4 °F 19.9 °F 88% 30.09 in 5.0 mi North 10.4 mph - N/A   Clear
7:52 AM 23.0 °F 13.9 °F 19.9 °F 88% 30.11 in 3.0 mi North 8.1 mph - N/A   Clear
8:52 AM 28.0 °F 20.0 °F 24.1 °F 85% 30.13 in 4.0 mi NNE 8.1 mph - N/A   Clear
9:52 AM 32.0 °F 23.0 °F 28.0 °F 85% 30.12 in 4.0 mi ENE 11.5 mph - N/A   Clear
10:52 AM 36.0 °F 32.1 °F 28.9 °F 76% 30.15 in 5.0 mi East 4.6 mph - N/A   Haze
11:52 AM 39.0 °F 32.8 °F 30.0 °F 70% 30.13 in 5.0 mi ENE 9.2 mph - N/A   Haze
12:52 PM 41.0 °F 38.0 °F 30.9 °F 67% 30.12 in 6.0 mi East 4.6 mph - N/A   Haze
1:52 PM 41.0 °F 35.8 °F 30.9 °F 67% 30.09 in 5.0 mi East 8.1 mph - N/A   Haze
2:52 PM 43.0 °F 38.2 °F 32.0 °F 65% 30.09 in 6.0 mi East 8.1 mph - N/A   Haze
4:52 PM 35.1 °F 30.1 °F 28.0 °F 76% 30.10 in 4.0 mi East 5.8 mph - N/A   Haze
5:52 PM 32.0 °F 24.2 °F 27.0 °F 82% 30.09 in 5.0 mi East 9.2 mph - N/A   Haze
6:52 PM 33.1 °F 24.4 °F 28.9 °F 85% 30.09 in 4.0 mi ESE 11.5 mph - N/A   Clear
7:52 PM 33.1 °F 23.4 °F 30.0 °F 89% 30.07 in 3.0 mi SE 13.8 mph - N/A   Clear
8:52 PM 30.9 °F 22.2 °F 28.9 °F 92% 30.06 in 2.5 mi SE 10.4 mph - N/A   Clear
9:52 PM 30.9 °F 21.2 °F 28.9 °F 92% 30.06 in 2.5 mi SE 12.7 mph - N/A   Clear
10:15 PM 30.2 °F 20.8 °F 28.4 °F 93% 30.00 in 2.5 mi SE 11.5 mph - N/A   Partly Cloudy
10:52 PM 30.9 °F 21.7 °F 30.0 °F 96% 30.05 in 2.5 mi SSE 11.5 mph - N/A   Scattered Clouds
11:52 PM 32.0 °F 23.0 °F 30.0 °F 92% 30.04 in 2.5 mi SSE 11.5 mph - N/A   Partly Cloudy